TimeAFT,TemperatureF,Dew PointF,Humidity,Sea Level PressureIn,VisibilityMPH,Wind Direction,Wind SpeedMPH,Gust SpeedMPH,PrecipitationIn,Events,Conditions,WindDirDegrees,DateUTC
12:20 AM,30.2,23.0,75,30.21,5.0,NW,8.1,-,N/A,,Mostly Cloudy,310,2013-02-11 19:50:00
1:20 AM,32.0,21.2,64,30.21,6.2,NW,8.1,-,N/A,,Mostly Cloudy,320,2013-02-11 20:50:00
2:20 AM,32.0,21.2,64,30.21,6.2,NNW,4.6,-,N/A,,Mostly Cloudy,340,2013-02-11 21:50:00
3:20 AM,30.2,21.2,69,30.18,6.2,NNW,5.8,-,N/A,,Scattered Clouds,330,2013-02-11 22:50:00
4:20 AM,28.4,21.2,74,30.18,-9999.0,NNW,5.8,-,N/A,,Clear,330,2013-02-11 23:50:00
5:20 AM,26.6,21.2,80,30.18,-9999.0,NW,6.9,-,N/A,,Clear,320,2013-02-12 00:50:00
6:20 AM,26.6,19.4,74,30.18,-9999.0,NW,5.8,-,N/A,,Clear,320,2013-02-12 01:50:00
7:20 AM,28.4,19.4,69,30.21,-9999.0,NW,8.1,-,N/A,,Clear,310,2013-02-12 02:50:00
8:20 AM,33.8,19.4,56,30.21,-9999.0,WNW,8.1,-,N/A,,Clear,300,2013-02-12 03:50:00
9:20 AM,37.4,19.4,48,30.24,-9999.0,WNW,5.8,-,N/A,,Clear,300,2013-02-12 04:50:00
10:20 AM,41.0,19.4,42,30.24,-9999.0,SE,2.3,-,N/A,,Clear,130,2013-02-12 05:50:00
11:20 AM,44.6,21.2,39,30.24,-9999.0,SE,3.5,-,N/A,,Clear,130,2013-02-12 06:50:00
12:20 PM,42.8,19.4,39,30.24,-9999.0,South,10.4,-,N/A,,Clear,170,2013-02-12 07:50:00
1:20 PM,46.4,19.4,34,30.21,6.2,South,5.8,-,N/A,,Mostly Cloudy,180,2013-02-12 08:50:00
2:20 PM,44.6,17.6,34,30.21,6.2,South,8.1,-,N/A,,Mostly Cloudy,190,2013-02-12 09:50:00
3:20 PM,46.4,17.6,32,30.18,6.2,South,4.6,-,N/A,,Mostly Cloudy,180,2013-02-12 10:50:00
4:20 PM,44.6,17.6,34,30.18,6.2,South,5.8,-,N/A,,Mostly Cloudy,180,2013-02-12 11:50:00
5:20 PM,42.8,19.4,39,30.18,6.2,SSW,3.5,-,N/A,,Mostly Cloudy,200,2013-02-12 12:50:00
6:20 PM,41.0,23.0,49,30.21,5.6,NNE,5.8,-,N/A,,Scattered Clouds,20,2013-02-12 13:50:00
7:20 PM,37.4,24.8,60,30.21,5.0,NW,3.5,-,N/A,,Scattered Clouds,310,2013-02-12 14:50:00
8:20 PM,37.4,24.8,60,30.21,5.0,ENE,5.8,-,N/A,,Unknown,60,2013-02-12 15:50:00
9:20 PM,33.8,26.6,75,30.24,4.3,North,4.6,-,N/A,,Unknown,350,2013-02-12 16:50:00
10:20 PM,33.8,26.6,75,30.24,3.1,NNW,5.8,-,N/A,,Haze,330,2013-02-12 17:50:00
11:20 PM,33.8,24.8,70,30.24,4.3,NNW,5.8,-,N/A,,Unknown,330,2013-02-12 18:50:00